Terug naar catalogus

OPS 4682 DEB

ActiefPO
NORAD 38378·DEBRIS·🇺🇸 United States

Gelanceerd Apr 3, 1965 vanaf Vandenberg Space Force Base

Loading…

Volgende Passages (komende 24 uur)

TLE

VersSource: Space-Track

Epoch: Sep 12, 2026, 16:09 UTC

1 38378U 65027CF  26255.67316590  .00000271  00000-0  83289-3 0  9999
2 38378  90.2300 341.2320 0032271 313.6829  46.1621 13.03311241630409

Volg OPS 4682 DEB in realtime met AllMySat

Download on the App Store